Weather History for Palestine, TX

Change the Weather History Date:

Sunday, February 10, 2013

  Actual Average (KTYR) Record (KTYR)
Temperature  
Mean Temperature 58 °F 49 °F  
Max Temperature 64 °F 59 °F 83 °F (1960)
Min Temperature 53 °F 39 °F 16 °F (1979)
Degree Days  
Heating Degree Days 6 16  
Month to date heating degree days 166  
Since 1 July heating degree days 1644  
Cooling Degree Days 0 0  
Month to date cooling degree days 0  
Year to date cooling degree days 4  
Growing Degree Days 8 (Base 50)    
Moisture  
Dew Point 46 °F    
Average Humidity 65    
Maximum Humidity 97    
Minimum Humidity 29    
Precipitation  
Precipitation 1.77 in 0.14 in 1.39 in (1983)
Month to date precipitation 1.27  
Year to date precipitation 4.33  
Snow  
Snow 0.00 in - - ()
Month to date snowfall  
Since 1 July snowfall  
Snow Depth -    
Sea Level Pressure  
Sea Level Pressure 29.90 in    
Wind  
Wind Speed 7 mph (WSW)    
Max Wind Speed 15 mph    
Max Gust Speed 23 mph    
Visibility 9 miles    
Events Rain    
T = Trace of Precipitation, MM = Missing Value Source: NWS Daily Summary

Daily Weather History Graph

Daily Weather History Graph

Search for Another Location

Airport:

Trip Planner

Search our weather history database for the weather conditions in past years. The results will help you decide how hot, cold, wet, or windy it might be!

Date:

Astronomy

Feb. 10, 2013 Rise Set
Actual Time 7:09 AM CST 6:05 PM CST
Civil Twilight 6:43 AM CST 6:30 PM CST
Nautical Twilight 6:15 AM CST 6:59 PM CST
Astronomical Twilight 5:46 AM CST 7:27 PM CST
Moon 7:04 AM CST (2/10) 6:50 PM CST (2/10)
Length of Visible Light 11h 46m
Length of Day
10h 56m
New Moon, 0% of the Moon is Illuminated
Feb 10
New Moon
Feb 17
First Quarter
Feb 25
Full
Mar 4
Last Quarter
Mar 11
New

Hourly Weather History & Observations

Time (CST) Temp. Dew Point Humidity Pressure Visibility Wind Dir Wind Speed Gust Speed Precip Events Conditions
12:15 AM 61.0 °F 59.2 °F 94% 29.84 in 7.0 mi SE 11.5 mph 17.3 mph N/A   Overcast
12:35 AM 61.7 °F 59.9 °F 94% 29.84 in 7.0 mi SE 9.2 mph - N/A   Overcast
12:55 AM 62.2 °F 60.1 °F 93% 29.82 in 7.0 mi SE 11.5 mph 18.4 mph N/A   Overcast
1:15 AM 62.8 °F 60.4 °F 92% 29.82 in 7.0 mi SSE 12.7 mph 19.6 mph N/A   Overcast
1:35 AM 63.3 °F 60.8 °F 91% 29.81 in 7.0 mi SSE 12.7 mph 23.0 mph N/A   Overcast
1:55 AM 63.5 °F 60.8 °F 91% 29.79 in 7.0 mi SE 13.8 mph 18.4 mph N/A   Overcast
2:35 AM 63.9 °F 61.0 °F 90% 29.78 in 7.0 mi SSE 15.0 mph 20.7 mph N/A   Overcast
2:55 AM 64.4 °F 61.3 °F 90% 29.80 in 7.0 mi South 9.2 mph 16.1 mph N/A   Overcast
3:15 AM 64.4 °F 61.3 °F 90% 29.80 in 7.0 mi SSE 6.9 mph - N/A Rain Light Rain
3:35 AM 63.9 °F 61.7 °F 93% 29.78 in 5.0 mi SSE 4.6 mph - 0.02 in Rain Rain
3:55 AM 63.7 °F 61.7 °F 93% 29.78 in 3.0 mi Calm Calm - 0.07 in Rain Heavy Rain
4:15 AM 63.5 °F 61.7 °F 94% 29.78 in 1.0 mi Calm Calm - 0.34 in Rain Heavy Rain
4:35 AM 63.5 °F 61.9 °F 94% 29.79 in 3.0 mi South 8.1 mph - 0.61 in Rain Rain
4:55 AM 63.5 °F 62.1 °F 95% 29.79 in 3.0 mi SW 3.5 mph - 0.63 in Rain Rain
5:15 AM 63.1 °F 61.9 °F 96% 29.79 in 2.5 mi Calm Calm - 0.01 in Rain Light Rain
5:35 AM 57.7 °F 56.5 °F 96% 29.78 in 1.0 mi WSW 12.7 mph 19.6 mph 0.63 in Rain Heavy Rain
6:15 AM 59.0 °F 57.7 °F 96% 29.83 in 5.0 mi West 12.7 mph 17.3 mph 0.10 in Rain Heavy Rain
6:35 AM 58.1 °F 57.0 °F 96% 29.83 in 4.0 mi WSW 4.6 mph - 0.36 in Rain Heavy Rain
6:55 AM 57.6 °F 56.7 °F 97% 29.83 in 7.0 mi West 4.6 mph - 0.39 in Rain Rain
7:15 AM 57.2 °F 56.3 °F 97% 29.82 in 5.0 mi WNW 6.9 mph - 0.04 in Rain Rain
7:35 AM 56.8 °F 55.8 °F 96% 29.84 in 10.0 mi West 6.9 mph - 0.05 in   Mostly Cloudy
7:55 AM 56.7 °F 55.4 °F 96% 29.87 in 10.0 mi West 5.8 mph - 0.05 in   Mostly Cloudy
8:15 AM 56.5 °F 54.7 °F 94% 29.87 in 10.0 mi SW 4.6 mph - N/A   Mostly Cloudy
8:35 AM 56.5 °F 54.1 °F 92% 29.89 in 10.0 mi WSW 4.6 mph - N/A   Mostly Cloudy
8:55 AM 56.7 °F 51.6 °F 83% 29.91 in 10.0 mi West 8.1 mph - N/A   Overcast
9:15 AM 56.8 °F 48.0 °F 72% 29.92 in 10.0 mi WNW 5.8 mph - N/A   Mostly Cloudy
9:35 AM 57.2 °F 45.7 °F 65% 29.92 in 10.0 mi WNW 9.2 mph - N/A   Mostly Cloudy
9:55 AM 58.5 °F 43.2 °F 57% 29.92 in 10.0 mi NW 10.4 mph - N/A   Scattered Clouds
10:15 AM 59.2 °F 39.2 °F 48% 29.91 in 10.0 mi WNW 9.2 mph - N/A   Scattered Clouds
10:35 AM 61.0 °F 37.2 °F 41% 29.91 in 10.0 mi NW 13.8 mph 19.6 mph N/A   Scattered Clouds
10:55 AM 63.1 °F 37.2 °F 38% 29.90 in 10.0 mi NW 11.5 mph 16.1 mph N/A   Scattered Clouds
11:15 AM 62.4 °F 35.6 °F 37% 29.91 in 10.0 mi WNW 9.2 mph 16.1 mph N/A   Clear
11:35 AM 63.1 °F 32.5 °F 32% 29.91 in 10.0 mi NW 11.5 mph 19.6 mph N/A   Clear
11:55 AM 64.6 °F 31.8 °F 29% 29.92 in 10.0 mi WNW 9.2 mph - N/A   Scattered Clouds
12:15 PM 64.4 °F 32.2 °F 30% 29.91 in 10.0 mi WNW 6.9 mph - N/A   Scattered Clouds
12:35 PM 64.2 °F 32.4 °F 30% 29.91 in 10.0 mi West 10.4 mph - N/A   Clear
12:55 PM 64.6 °F 32.5 °F 30% 29.90 in 10.0 mi West 9.2 mph - N/A   Clear
1:15 PM 64.4 °F 31.5 °F 29% 29.90 in 10.0 mi West 10.4 mph - N/A   Scattered Clouds
1:35 PM 63.5 °F 31.3 °F 30% 29.91 in 10.0 mi West 8.1 mph - N/A   Overcast
1:55 PM 63.5 °F 32.5 °F 31% 29.90 in 10.0 mi West 6.9 mph - N/A   Mostly Cloudy
2:15 PM 64.0 °F 32.5 °F 31% 29.88 in 10.0 mi West 5.8 mph - N/A   Scattered Clouds
2:35 PM 64.8 °F 33.4 °F 31% 29.89 in 10.0 mi West 6.9 mph - N/A   Scattered Clouds
2:55 PM 63.9 °F 32.4 °F 31% 29.89 in 10.0 mi West 6.9 mph - N/A   Mostly Cloudy
3:15 PM 63.5 °F 32.2 °F 31% 29.90 in 10.0 mi WSW 3.5 mph - N/A   Overcast
3:35 PM 64.2 °F 33.4 °F 32% 29.89 in 10.0 mi WSW 3.5 mph - N/A   Overcast
3:55 PM 64.0 °F 32.4 °F 31% 29.90 in 10.0 mi WSW 4.6 mph - N/A   Mostly Cloudy
4:15 PM 64.4 °F 33.6 °F 32% 29.90 in 10.0 mi SSW 5.8 mph - N/A   Scattered Clouds
4:35 PM 64.4 °F 32.9 °F 31% 29.90 in 10.0 mi WSW 5.8 mph - N/A   Scattered Clouds
4:55 PM 63.7 °F 33.1 °F 32% 29.91 in 10.0 mi WSW 3.5 mph - N/A   Mostly Cloudy
5:15 PM 63.0 °F 33.4 °F 33% 29.91 in 10.0 mi Calm Calm - N/A   Scattered Clouds
5:35 PM 61.9 °F 36.9 °F 39% 29.92 in 10.0 mi Calm Calm - N/A   Mostly Cloudy
5:55 PM 61.7 °F 36.9 °F 40% 29.93 in 10.0 mi Calm Calm - N/A   Overcast
6:15 PM 60.8 °F 36.5 °F 40% 29.93 in 10.0 mi Calm Calm - N/A   Scattered Clouds
6:35 PM 60.3 °F 38.8 °F 45% 29.94 in 10.0 mi Calm Calm - N/A   Mostly Cloudy
6:55 PM 56.8 °F 42.6 °F 59% 29.95 in 10.0 mi SSE 3.5 mph - N/A   Mostly Cloudy
7:15 PM 57.6 °F 43.9 °F 60% 29.95 in 10.0 mi Calm Calm - N/A   Overcast
7:35 PM 58.1 °F 42.1 °F 55% 29.97 in 10.0 mi Calm Calm - N/A   Mostly Cloudy
7:55 PM 56.8 °F 45.1 °F 65% 29.98 in 10.0 mi Calm Calm - N/A   Mostly Cloudy
8:15 PM 55.2 °F 46.8 °F 73% 29.99 in 10.0 mi Calm Calm - N/A   Mostly Cloudy
8:35 PM 54.5 °F 46.4 °F 74% 30.00 in 10.0 mi Calm Calm - N/A   Scattered Clouds
8:55 PM 53.8 °F 46.6 °F 77% 30.00 in 10.0 mi Calm Calm - N/A   Mostly Cloudy
9:15 PM 53.8 °F 47.8 °F 80% 30.00 in 10.0 mi Calm Calm - N/A   Scattered Clouds
9:35 PM 54.0 °F 46.6 °F 76% 29.99 in 10.0 mi WNW 3.5 mph - N/A   Clear
9:55 PM 53.6 °F 46.2 °F 76% 30.00 in 10.0 mi Calm Calm - N/A   Clear
10:15 PM 53.4 °F 45.9 °F 76% 30.00 in 10.0 mi Calm Calm - N/A   Scattered Clouds
10:35 PM 53.8 °F 45.1 °F 73% 30.00 in 10.0 mi WNW 4.6 mph - N/A   Scattered Clouds
10:55 PM 53.8 °F 45.3 °F 73% 30.00 in 10.0 mi Calm Calm - N/A   Clear
11:15 PM 53.1 °F 45.1 °F 74% 30.01 in 10.0 mi Calm Calm - N/A   Scattered Clouds
11:35 PM 53.4 °F 44.2 °F 71% 30.03 in 10.0 mi Calm Calm - N/A   Mostly Cloudy
11:55 PM 53.4 °F 44.8 °F 73% 30.05 in 10.0 mi SSE 4.6 mph - N/A   Overcast